Left ArrowRight Arrow

41.76142, -88.44369

Hourly Observations for November 18, 2016

Temp ( °F °C ) Dew Point ( °F °C ) Humidity (%) Winds ( mph kmh ) Pressure ( in mb ) Visibility ( mi km ) Precip ( " mm )
12:52 am 00:52 Clear 57 13.9 47 8.3 69 69 S 9 15 29.81 1009 9 14 0.00 0.00
1:52 am 01:52 Clear 57 13.9 47 8.3 69 69 S 10 17 29.82 1010 9 14 0.00 0.00
2:52 am 02:52 Clear 55 12.8 47 8.3 74 74 SSE 9 15 29.81 1010 9 14 0.00 0.00
3:52 am 03:52 Clear 56 13.3 47 8.3 72 72 S 12 19 29.80 1009 9 14 0.00 0.00
4:52 am 04:52 Clear 56 13.3 46 7.8 70 70 S 14 22 29.80 1009 9 14 0.00 0.00
5:52 am 05:52 Mostly Clear 55 12.8 46 7.8 72 72 S 12 19 29.79 1009 10 16 0.00 0.00
6:52 am 06:52 Mostly Cloudy 56 13.3 46 7.8 70 70 S 12 19 29.79 1009 9 14 0.00 0.00
7:52 am 07:52 Cloudy 58 14.4 46 7.8 65 65 S 12 19 29.79 1009 10 16 0.00 0.00
8:52 am 08:52 Cloudy 60 15.6 48 8.9 65 65 S 14 22 29.78 1009 9 14 0.00 0.00
9:52 am 09:52 Mostly Cloudy 64 17.8 50 10 60 60 S 20 31 29.76 1008 10 16 0.00 0.00
10:52 am 10:52 Partly Cloudy 63 17.2 52 11.1 68 68 S 18 30 29.75 1007 9 14 0.00 0.03
11:52 am 11:52 Mostly Sunny 65 18.3 53 11.7 66 66 S 18 30 29.72 1006 9 14 0.00 0.00
12:52 pm 12:52 Cloudy 63 17.2 57 13.9 81 81 S 17 28 29.71 1006 8 13 0.01 0.25
1:18 pm 13:18 Cloudy 64 17.8 57 13.9 78 78 S 16 26 29.71 1006 8 13 0.01 0.25
1:52 pm 13:52 Mostly Cloudy 65 18.3 58 14.4 78 78 S 18 30 29.70 1006 8 13 0.01 0.25
2:52 pm 14:52 Cloudy 61 16.1 47 8.3 60 60 WSW 22 35 29.72 1007 8 13 0.00 0.00
3:52 pm 15:52 Mostly Cloudy 57 13.9 42 5.6 58 58 WSW 20 31 29.74 1007 9 14 0.00 0.00
4:52 pm 16:52 Clear 49 9.4 37 2.8 64 64 WSW 30 48 29.79 1009 10 16 0.00 0.00
5:52 pm 17:52 Cloudy 46 7.8 35 1.7 66 66 W 23 37 29.82 1010 10 16 0.00 0.00
6:52 pm 18:52 Cloudy 44 6.7 31 -0.6 60 60 W 28 44 29.85 1011 10 16 0.00 0.00
7:52 pm 19:52 Cloudy 42 5.6 30 -1.1 62 62 WSW 26 43 29.87 1011 10 16 0.00 0.00
8:52 pm 20:52 Cloudy 41 5 29 -1.7 62 62 W 26 43 29.88 1012 10 16 0.00 0.00
9:52 pm 21:52 Cloudy 40 4.4 29 -1.7 65 65 W 29 46 29.89 1012 10 16 0.00 0.00
10:52 pm 22:52 Cloudy 40 4.4 29 -1.7 65 65 W 26 43 29.91 1013 10 16 0.00 0.00
11:31 pm 23:31 Cloudy 39 3.9 30 -1.1 70 70 W 24 39 29.91 1013 10 16 0.00 0.00
11:52 pm 23:52 Cloudy with Light Rain 39 3.9 31 -0.6 73 73 W 21 33 29.93 1013 10 16 0.00 0.03

Powered by Vaisala Xweather